CDT,Max TemperatureF,Mean TemperatureF,Min TemperatureF,Max Dew PointF,MeanDew PointF,Min DewpointF,Max Humidity, Mean Humidity, Min Humidity, Max Sea Level PressureIn, Mean Sea Level PressureIn, Min Sea Level PressureIn, Max VisibilityMiles, Mean VisibilityMiles, Min VisibilityMiles, Max Wind SpeedMPH, Mean Wind SpeedMPH, Max Gust SpeedMPH,PrecipitationIn, CloudCover, Events, WindDirDegrees
2013-4-1,78,59,40,55,44,39,100,64,28,30.08,30.01,29.96,10,4,0,10,2,15,0.00,0,Fog,37
2013-4-2,60,51,42,51,42,36,96,75,54,30.15,30.10,30.03,10,7,1,23,13,30,0.50,6,Rain,80
2013-4-3,53,48,42,40,34,27,89,66,42,30.17,30.12,30.06,10,10,10,24,11,32,T,8,,72
2013-4-4,50,43,36,43,39,31,100,83,65,30.15,30.11,30.07,10,6,0,9,4,14,0.25,6,Fog-Rain,335
2013-4-5,71,52,32,46,36,31,100,63,26,30.20,30.15,30.05,10,4,0,8,2,10,0.00,0,Fog,288
2013-4-6,77,60,43,53,46,41,96,65,33,30.04,29.94,29.84,10,10,6,18,6,26,0.00,1,,181
2013-4-7,76,65,54,58,55,51,93,70,46,29.96,29.88,29.80,10,10,8,17,6,23,0.00,7,,166
2013-4-8,79,71,63,60,58,56,84,66,48,29.84,29.78,29.72,10,9,8,15,6,21,0.00,7,,153
2013-4-9,84,75,66,67,62,58,87,67,47,29.81,29.77,29.70,10,10,9,21,10,31,T,5,,137
2013-4-10,77,60,42,68,52,39,93,81,69,29.89,29.78,29.71,10,8,0,22,8,28,0.33,7,Fog-Rain,261
2013-4-11,63,50,36,39,36,32,92,62,32,29.91,29.84,29.74,10,10,10,15,7,20,T,3,Rain,298
2013-4-12,75,55,34,47,38,33,100,64,27,29.98,29.90,29.86,10,6,0,14,3,17,0.00,0,Fog,264
2013-4-13,77,61,44,48,44,40,92,63,33,30.05,29.93,29.81,10,10,10,16,5,21,0.00,0,,120
2013-4-14,80,64,48,56,52,47,100,70,39,29.81,29.69,29.57,10,10,8,17,6,23,0.00,0,,147
2013-4-15,85,73,60,66,62,56,93,72,51,29.82,29.74,29.68,10,7,2,14,6,20,0.00,4,,110
2013-4-16,87,75,62,69,66,61,93,71,48,29.94,29.88,29.79,9,6,2,16,6,22,0.00,5,,125
2013-4-17,86,80,73,70,67,63,87,69,51,29.94,29.84,29.70,10,9,6,21,10,31,0.00,6,,164
2013-4-18,77,61,45,67,52,32,96,77,58,30.05,29.78,29.58,10,8,1,24,12,34,0.45,8,Rain,280
2013-4-19,60,47,34,39,30,25,92,59,26,30.18,30.13,30.06,10,10,9,18,7,24,0.00,1,,297
2013-4-20,70,52,34,46,36,33,100,64,28,30.24,30.17,30.08,10,6,0,15,4,23,0.00,0,Fog,103
2013-4-21,71,56,41,46,42,39,93,63,33,30.26,30.17,30.10,10,10,10,15,5,20,0.00,0,,120
2013-4-22,76,59,42,48,45,41,100,68,36,30.17,30.04,29.91,10,10,7,16,5,22,0.00,0,,140
2013-4-23,76,62,47,62,53,40,83,72,60,30.04,29.93,29.86,10,9,7,21,8,25,0.00,6,,229
2013-4-24,64,52,40,41,38,33,93,64,34,30.30,30.20,30.06,10,9,2,16,5,23,0.16,3,Rain,344
2013-4-25,72,53,34,46,38,33,100,64,27,30.36,30.30,30.21,10,6,0,15,4,19,0.00,1,Fog,106
2013-4-26,62,57,52,56,51,40,86,67,47,30.26,30.16,30.08,10,6,2,15,6,21,0.08,8,Rain,87
2013-4-27,76,67,57,66,58,53,93,81,68,30.07,30.01,29.97,10,8,3,21,8,25,0.01,7,Rain,265
2013-4-28,79,63,46,56,51,45,100,77,42,30.03,29.96,29.87,10,8,1,10,2,12,0.00,1,,146
2013-4-29,85,68,50,63,53,50,100,67,34,29.93,29.89,29.79,10,5,0,14,3,21,0.00,0,Fog,171
2013-4-30,83,67,50,62,55,51,100,72,43,29.87,29.83,29.77,10,6,0,15,4,20,0.00,0,Fog,111